• Join FlightAware (Why Join?)
  • Login
  • US Flag 
03:52PM EDT


 

Airport Tracker/Info


-or-


 

Live Flight TrackerFlight Track Log ✈ DAL10 ✈ 17-Feb-2012 ✈ KCVG - KATL

Flight Track Log - Related Links

Times and Time Zones

All times are in EST time to prevent confusion due to time zone crossing. See the DAL10 flight status page for this flight to view local times or setup timezone preferences in your user account.

Time Position Orientation Groundspeed Altitude Reporting Facility
EST Latitude Longitude Course Direction KTS MPH feet Rate Location/Type
07:41PM 38.8131 -84.9003 191° South 413 475 12,200  Level Indianapolis Center
07:42PM 38.7064 -84.9275 192° South 425 489 14,300 2,280 Climbing Indianapolis Center
07:43PM 38.6039 -84.9547 211° Southwest 392 451 16,800 2,100 Climbing Indianapolis Center
07:44PM 38.5239 -85.0169 217° Southwest 375 432 18,600 1,920 Climbing Indianapolis Center
07:45PM 38.4375 -85.1000 217° Southwest 382 440 20,700 1,860 Climbing Indianapolis Center
07:46PM 38.3531 -85.1806 216° Southwest 389 448 22,400 2,100 Climbing Indianapolis Center
07:47PM 38.2642 -85.2631 210° Southwest 395 455 24,900 1,800 Climbing Indianapolis Center
07:48PM 38.1756 -85.3272 196° South 384 442 26,100 1,140 Climbing Indianapolis Center
07:49PM 38.0644 -85.3667 203° Southwest 384 442 27,200 1,500 Climbing Indianapolis Center
07:50PM 37.9633 -85.4222 206° Southwest 400 460 29,200 1,800 Climbing Indianapolis Center
07:51PM 37.8667 -85.4828 207° Southwest 393 452 30,900 1,440 Climbing Indianapolis Center
07:52PM 37.7675 -85.5458 218° Southwest 376 433 32,100 1,020 Climbing Indianapolis Center
07:53PM 37.6889 -85.6225 219° Southwest 367 422 33,000 420 Climbing Indianapolis Center
07:54PM 37.6125 -85.7017 222° Southwest 361 415 33,000  Level Indianapolis Center
07:56PM 37.4772 -85.8544 218° Southwest 341 392 33,000  Level Memphis Center
07:57PM 37.4008 -85.9292 199° South 349 402 33,000  Level Memphis Center
07:58PM 37.3003 -85.9739 192° South 373 429 33,000  Level Memphis Center
07:59PM 37.1931 -86.0033 191° South 392 451 33,000  Level Memphis Center
08:00PM 37.0836 -86.0300 191° South 399 459 33,000  Level Memphis Center
08:01PM 36.9658 -86.0597 191° South 399 459 33,000  Level Memphis Center
08:02PM 36.8583 -86.0864 192° South 399 459 33,000 -120 Level Memphis Center
08:03PM 36.7489 -86.1156 191° South 405 466 32,800 -960 Descending Memphis Center
08:04PM 36.6414 -86.1417 192° South 405 466 31,200 -900 Descending Memphis Center
08:05PM 36.5319 -86.1708 191° South 410 472 31,000 -120 Descending Memphis Center
08:06PM 36.4222 -86.1969 192° South 410 472 31,000  Level Memphis Center
08:07PM 36.3108 -86.2258 192° South 410 472 31,000  Level Memphis Center
08:08PM 36.2114 -86.2517 191° South 410 472 31,000  Level Memphis Center
08:09PM 36.1019 -86.2778 192° South 410 472 31,000  Level Memphis Center
08:10PM 35.9903 -86.3064 161° South 410 472 31,000  Level Memphis Center
08:13PM 35.6125 -86.1486 154° Southeast 449 517 31,000  Level Atlanta Center
08:14PM 35.4947 -86.0794 155° Southeast 461 531 31,000 -420 Level Atlanta Center
08:15PM 35.3894 -86.0183 154° Southeast 461 531 30,200 -960 Descending Atlanta Center
08:16PM 35.2364 -85.9281 154° Southeast 468 539 28,900 -960 Descending Atlanta Center
08:17PM 35.1206 -85.8594 157° South 463 533 28,200 -660 Descending Atlanta Center
08:18PM 35.0047 -85.7986 180° South 463 533 27,600 -600 Descending Atlanta Center
08:19PM 34.8900 -85.7986 183° South 416 479 27,000 -600 Descending Atlanta Center
08:20PM 34.7750 -85.8064 164° South 416 479 26,400 -600 Descending Atlanta Center
08:21PM 34.6586 -85.7661 138° Southeast 422 486 25,900 -780 Descending Atlanta Center
08:22PM 34.5703 -85.6683 132° Southeast 416 479 24,900 -1,500 Descending Atlanta Center
08:23PM 34.4922 -85.5636 132° Southeast 416 479 22,900 -2,040 Descending Atlanta Center
08:24PM 34.4183 -85.4642 130° Southeast 405 466 20,900 -1,980 Descending Atlanta Center
08:25PM 34.3528 -85.3697 133° Southeast 382 440 19,000 -1,680 Descending Atlanta Center
08:26PM 34.2869 -85.2833 131° Southeast 361 415 17,600 -1,500 Descending Atlanta Center
08:27PM 34.2231 -85.1944 134° Southeast 350 403 16,100 -1,500 Descending Atlanta Center
08:28PM 34.1569 -85.1108 133° Southeast 344 396 14,600 -1,500 Descending Atlanta Center
08:29PM 34.0969 -85.0322 142° Southeast 332 382 13,100 -1,200 Descending Atlanta Center
08:30PM 34.0308 -84.9689 155° Southeast 317 365 12,300 -1,200 Descending Atlanta Center
08:31PM 33.9642 -84.9306 156° South 302 348 10,800 -1,200 Descending Atlanta Center
08:32PM 33.8914 -84.8922 178° South 291 335 10,000 -900 Descending Atlanta Center
08:33PM 33.8122 -84.8889 181° South 281 323 9,000 -1,140 Descending Atlanta Center
08:34PM 33.7350 -84.8906 183° South 276 318 7,800 -1,080 Descending Atlanta Center
08:35PM 33.6619 -84.8950 127° Southeast 271 312 6,900 -540 Descending Atlanta Center
08:36PM 33.6333 -84.8500 90° East 238 274 7,000 -900 Climbing Atlanta TRACON
08:41PM 33.6333 -84.5000 90° East 155 178 1,900 -1,020 Descending Atlanta TRACON